Location: Newark
(42.7133°N, 87.7910°W)
Time: 15:37:13
(UTC+00:00)

Vanguard 1 - Pass Details

Date: 27 September 2019
Orbit: 653 x 3830 km, 34.2° (Epoch: 20 October)

Event Time Altitude Azimuth Distance (km) Brightness Sun altitude
Rises 09:02:26 0° 264° (W) 7,747 - -29.4°
Reaches altitude 10° 09:07:33 10° 262° (W) 6,865 - -28.5°
Exits shadow 09:17:49 34° 255° (WSW) 5,151 13.1 -26.9°
Maximum altitude 09:30:48 66° 188° (S) 3,687 12.7 -24.7°
Drops below altitude 10° 09:47:33 10° 111° (ESE) 5,185 14.4 -21.8°
Sets 09:50:48 0° 108° (ESE) 5,852 14.9 -21.2°
